Simultaneous Nadir Overpasses (SNOs) Predictions

Prediction of SNOs between NOAA-19 and TERRA Satellite Orbit:

Table of predicted SNOs for the next 14.0 days since TLE Epoch: 9/12/2015
Index Date (NOAA-19) Time (NOAA-19) Lat,Lon (NOAA-19) SZA (NOAA-19 ) Date (TERRA) Time (TERRA) Lat,Lon (TERRA) SZA (TERRA ) Distance(km) Time Diff (sec)
1 09/13/2015 13:07:29 72.47, -12.32 68.67 09/13/2015 13:08:02 72.48, -12.33 68.69 1.51 33
2 09/13/2015 13:58:30 -72.39, 155.09 111.39 09/13/2015 13:57:32 -72.36, 155.07 111.43 3.41 58
3 09/15/2015 17:50:59 73.11, -84.50 70.13 09/15/2015 17:52:07 72.99, -82.42 70.08 68.74 68
4 09/15/2015 18:41:48 -72.46, 84.16 110.48 09/15/2015 18:41:45 -72.44, 84.16 110.50 1.98 3
5 09/15/2015 19:32:31 71.58,-106.86 68.73 09/15/2015 19:31:25 71.65,-109.58 68.69 95.91 66
6 09/17/2015 23:25:06 -72.53, 13.22 109.55 09/17/2015 23:25:58 -72.52, 13.25 109.56 1.95 52
7 09/18/2015 00:16:05 72.44,-179.33 70.38 09/18/2015 00:15:25 72.42,-179.28 70.36 2.25 40
8 09/20/2015 04:59:23 72.49, 109.78 71.28 09/20/2015 04:59:38 72.49, 109.78 71.28 0.09 15
9 09/20/2015 05:50:21 -72.34, -82.66 108.85 09/20/2015 05:49:08 -72.37, -82.80 108.83 6.35 73
10 09/22/2015 09:42:41 72.55, 38.88 72.20 09/22/2015 09:43:51 72.55, 38.83 72.21 1.67 70
11 09/22/2015 10:33:40 -72.47,-153.71 107.87 09/22/2015 10:33:20 -72.49,-153.65 107.85 2.84 20
12 09/24/2015 15:16:58 -72.56, 135.33 106.92 09/24/2015 15:17:33 -72.54, 135.39 106.93 2.72 35
13 09/24/2015 16:07:58 72.43, -57.17
